Regional Weather Roundup
Issued by NWS

Home | Current Version | Previous Version | Text Only | Print | Product List | Glossary On
Versions: 1 2 3 4 5 6 7 8 9 10 11 12 13 14 15 16 17 18 19 20 21 22 23 24 25 26 27 28 29 30 31 32 33 34 35 36 37 38 39 40 41 42 43 44 45 46 47 48 49 50
000
ASUS43 KTOP 230859
RWRKS

WEATHER ROUNDUP FOR KANSAS
NATIONAL WEATHER SERVICE GOODLAND KS
400 AM CDT SAT MAY 23 2015

NOTE:  "FAIR" INDICATES FEW OR NO CLOUDS BELOW 12,000 FEET WITH NO
SIGNIFICANT WEATHER AND/OR OBSTRUCTIONS TO VISIBILITY.

KSZ001>006-013>018-027>032-041>047-231000-
NORTHWEST KANSAS

CITY           SKY/WX    TMP DP  RH WIND       PRES   REMARKS
GOODLAND       CLOUDY    53  53 100 SE13G22   30.03R FOG
HAYS           CLOUDY    54  46  76 SE12      30.10F
HILL CITY      MOCLDY    54  52  93 SE15G24   30.06F
RUSSELL        CLOUDY    54  53  97 SE13      30.10F
$$

KSZ061>065-074>080-084>089-231000-
SOUTHWEST KANSAS

CITY           SKY/WX    TMP DP  RH WIND       PRES   REMARKS
DODGE CITY     FOG       53  52  96 SE13      30.09R VSB 1/2
ELKHART          N/A     57  55  93 SE8         N/A
GARDEN CITY    CLOUDY    53  53 100 SE16      30.05R FOG
GREAT BEND     CLOUDY    54  50  87 SE12      30.11F
LIBERAL        CLOUDY    57  54  88 SE8       30.07R
$$

KSZ066>073-081>083-090>101-231000-
SOUTHEAST KANSAS

CITY           SKY/WX    TMP DP  RH WIND       PRES   REMARKS
CHANUTE        CLOUDY    59  55  87 S5        30.19S
COFFEYVILLE    LGT RAIN  57  56  96 SE3       30.19S FOG
HUTCHINSON     CLOUDY    55  53  93 E7        30.14F FOG
NEWTON         CLOUDY    54  48  82 SE6       30.18S
PARSONS        LGT RAIN  57  56  96 SE3       30.20S
WICHITA INTL   CLOUDY    56  54  93 SE7       30.14F FOG
WICHITA JABRA  CLOUDY    54  54 100 SE8       30.15F FOG
WICHITA MCCONL CLOUDY    55  54  94 SE7       30.15F FOG
WINFIELD       CLOUDY    56  56 100 SE6       30.16F FOG
$$

KSZ007>012-019>026-033>040-048>060-102>105-231000-
NORTHEAST KANSAS

CITY           SKY/WX    TMP DP  RH WIND       PRES   REMARKS
CONCORDIA      CLOUDY    53  52  96 SE7       30.15F
EMPORIA        CLOUDY    55  54  96 S7        30.18S FOG
LAWRENCE       CLOUDY    59  52  77 SE5       30.20R
MANHATTAN      CLOUDY    57  54  89 CALM      30.17F
OLATHE IND     CLOUDY    59  51  75 S12       30.20S
OLATHE EXE     CLOUDY    59  51  75 S10       30.19S
SALINA         CLOUDY    55  53  93 SE6       30.16S
TOPEKA BILLARD LGT RAIN  59  53  80 SE5       30.19R
TOPEKA FORBES  LGT RAIN  59  52  77 S9        30.19R
$$



USA.gov is the U.S. government's official web portal to all federal, state and local government web resources and services.